Regional Weather Roundup
Issued by NWS

Home | Current Version | Previous Version | Text Only | Print | Product List | Glossary On
Versions: 1 2 3 4 5 6 7 8 9 10 11 12 13 14 15 16 17 18 19 20 21 22 23 24 25 26 27 28 29 30 31 32 33 34 35 36 37 38 39 40 41 42 43 44 45 46 47 48 49 50
000
ASUS44 KLIX 311812
RWRLA
LOUISIANA WEATHER ROUNDUP
NATIONAL WEATHER SERVICE NEW ORLEANS LA
100 PM CDT FRI JUL 31 2015

NOTE: "FAIR" INDICATES FEW OR NO CLOUDS BELOW 12,000 FEET WITH NO
      SIGNIFICANT WEATHER AND/OR OBSTRUCTIONS TO VISIBILITY.
      SKY/WX - SKY CONDITION AND SIGNIFICANT WEATHER.
      TMP - AIR TEMPERATURE.    DP   - DEWPOINT TEMPERATURE.
      RH  - RELATIVE HUMIDITY.  PRES - PRESSURE.
      HX  - HEAT INDEX.         WCI  - WIND CHILL INDEX.

*  THESE STATIONS ARE NOT NWS OR FAA STATIONS AND ARE NOT UNDER
   NWS QUALITY CONTROL.

LAZ040-048-061>063-065-066-069-311900-
SOUTHEAST LOUISIANA

CITY           SKY/WX    TMP DP  RH WIND       PRES   REMARKS
N.O. AUDUBON   NOT AVBL
N.O. INTL ARPT MOSUNNY   89  72  56 N12       29.95F HX  96
6HR MIN TEMP:  82; 6HR MAX TEMP:  90;

N.O. LAKEFRONT MOSUNNY   88  73  61 NW7       29.95F HX  95
6HR MIN TEMP:  81; 6HR MAX TEMP:  89;

N.O. DOWNTOWN* FAIR      90  73  58 NW6       29.96S HX  98
6HR MIN TEMP:  81; 6HR MAX TEMP:  90;

RESERVE*       FAIR      92  72  51 N8        29.96S HX 100
6HR MIN TEMP:  77; 6HR MAX TEMP:  92;

SLIDELL        SUNNY     92  76  59 VRB5      29.94F HX 104
6HR MIN TEMP:  76; 6HR MAX TEMP:  92;

BATON ROUGE    SUNNY     91  69  48 N8        29.97F HX  96
6HR MIN TEMP:  75; 6HR MAX TEMP:  91;

BOOTHVILLE     MOSUNNY   89  77  67 N6        29.95S HX 101
6HR MIN TEMP:  83; 6HR MAX TEMP:  89;

BELLE CHASSE   MOSUNNY   91  75  59 NE7       29.94F HX 101
6HR MIN TEMP:  79; 6HR MAX TEMP:  92;

BOGALUSA*        N/A     89  72  56 N7        29.98S HX  96
6HR MIN TEMP:  75; 6HR MAX TEMP:  89;

GALLIANO*      NOT AVBL
NEW ROADS*     FAIR     N/A N/A N/A N10       29.99S
GONZALES*      FAIR      90  72  56 CALM      29.96S HX  97
6HR MIN TEMP:  76; 6HR MAX TEMP:  90;

HAMMOND*       SUNNY     93  66  40 N7        29.97F HX  96
HOUMA*         SUNNY     91  75  59 N5        29.95S HX 102
PORT FOURCHON* NOT AVBL

$$

LAZ041-044-053-054-311900-
SOUTHWEST LOUISIANA

CITY           SKY/WX    TMP DP  RH WIND       PRES   REMARKS
LAKE CHARLES   MOSUNNY   93  72  50 NE13      29.98F HX 101
6HR MIN TEMP:  78; 6HR MAX TEMP:  93;

LAFAYETTE      SUNNY     91  69  48 N12       29.98F HX  96
6HR MIN TEMP:  77; 6HR MAX TEMP:  91;

PATTERSON      SUNNY     90  75  62 NE8       29.97S HX 100
6HR MIN TEMP:  77; 6HR MAX TEMP:  90;

SALT POINT       N/A     92  75  57 MISG      29.94F HX 103
6HR MIN TEMP:  78; 6HR MAX TEMP:  92;

NEW IBERIA     SUNNY     92  71  50 N13       29.98S HX  98
6HR MIN TEMP:  77; 6HR MAX TEMP:  92;

CHENAULT AIRPK PTSUNNY   91  73  55 N12G17    29.99F HX 100

$$

LAZ027-028-311900-
CENTRAL LOUISIANA

CITY           SKY/WX    TMP DP  RH WIND       PRES   REMARKS
FORT POLK      SUNNY     89  64  42 N12       30.01F
6HR MIN TEMP:  76; 6HR MAX TEMP:  89;

ALEXANDRIA INT SUNNY     90  66  45 NE10      30.01F
6HR MIN TEMP:  73; 6HR MAX TEMP:  90;

ALEXANDRIA     SUNNY     92  68  45 VRB7      30.03S HX  96
6HR MIN TEMP:  75; 6HR MAX TEMP:  92;


$$

LAZ001-002-311900-
NORTHWEST LOUISIANA

CITY           SKY/WX    TMP DP  RH WIND       PRES   REMARKS
SHREVEPORT     MOSUNNY   91  60  35 E10G18    30.07F
6HR MIN TEMP:  76; 6HR MAX TEMP:  92;

BARKSDALE AFB  SUNNY     90  59  35 E8        30.07F
6HR MIN TEMP:  72; 6HR MAX TEMP:  90;

DTN SHREVEPORT SUNNY     89  62  40 VRB6      30.08S
6HR MIN TEMP:  73; 6HR MAX TEMP:  89;


$$

LAZ014-016-311900-
NORTHEAST LOUISIANA

CITY           SKY/WX    TMP DP  RH WIND       PRES   REMARKS
MONROE         SUNNY     90  64  42 NE14G21   30.07F
6HR MIN TEMP:  70; 6HR MAX TEMP:  90;

TALLULAH       SUNNY     91  59  33 NE14      30.04S
6HR MIN TEMP:  74; 6HR MAX TEMP:  92;


$$




USA.gov is the U.S. government's official web portal to all federal, state and local government web resources and services.